This demonstration page uses our WeatherBlox Daily Observations layout. Learn more.

Left ArrowRight Arrow

44.8408, -93.29828

Hourly Observations for September 16, 2022

Temp ( °F °C ) Dew Point ( °F °C ) Humidity (%) Winds ( mph kmh ) Pressure ( in mb ) Visibility ( mi km ) Precip ( " mm )
12:53 am 00:53 Mostly Cloudy 71 21.7 59 15 66 66 SSE 7 11 29.96 1015 10 16 0.00 0.00
1:53 am 01:53 Mostly Cloudy 70 21.1 58 14.4 66 66 S 7 11 29.95 1014 10 16 0.00 0.00
2:53 am 02:53 Mostly Cloudy 69 20.6 58 14.4 68 68 SSE 8 13 29.95 1014 10 16 0.00 0.00
3:53 am 03:53 Mostly Cloudy with Light Rain 68 20 60 15.6 76 76 S 7 11 29.94 1014 10 16 0.02 0.51
4:53 am 04:53 Cloudy 67 19.4 62 16.7 84 84 S 9 15 29.94 1014 10 16 0.01 0.13
5:53 am 05:53 Cloudy 66 18.9 61 16.1 84 84 S 7 11 29.93 1014 10 16 0.00 0.00
6:53 am 06:53 Cloudy 65 18.3 61 16.1 87 87 SSE 7 11 29.93 1014 10 16 0.00 0.00
7:53 am 07:53 Cloudy 65 18.3 61 16.1 87 87 SE 6 9 29.93 1014 10 16 0.00 0.00
8:53 am 08:53 Cloudy 66 18.9 61 16.1 84 84 SSE 8 13 29.93 1014 10 16 0.00 0.00
9:53 am 09:53 Cloudy 66 18.9 62 16.7 87 87 SSE 7 11 29.94 1014 10 16 0.01 0.25
10:53 am 10:53 Cloudy 69 20.6 62 16.7 78 78 S 7 11 29.94 1014 10 16 0.00 0.00
11:53 am 11:53 Mostly Cloudy 74 23.3 61 16.1 64 64 SSW 12 19 29.93 1014 10 16 0.00 0.00
12:53 pm 12:53 Mostly Cloudy 75 23.9 61 16.1 62 62 SW 9 15 29.92 1013 10 16 0.00 0.00
1:53 pm 13:53 Mostly Cloudy 76 24.4 61 16.1 60 60 S 13 20 29.90 1013 10 16 0.00 0.00
2:53 pm 14:53 Cloudy 73 22.8 62 16.7 68 68 S 16 26 29.91 1013 10 16 0.00 0.00
3:53 pm 15:53 Cloudy with Light Rain 71 21.7 64 17.8 79 79 S 14 22 29.91 1013 10 16 0.01 0.13
4:53 pm 16:53 Cloudy with Light Rain 69 20.6 65 18.3 87 87 SSE 10 17 29.90 1013 9 14 0.01 0.25
5:53 pm 17:53 Mostly Cloudy with Light Rain 70 21.1 65 18.3 84 84 S 10 17 29.91 1013 9 14 0.01 0.13
6:53 pm 18:53 Mostly Cloudy 70 21.1 65 18.3 84 84 SSW 6 9 29.91 1013 10 16 0.01 0.13
7:53 pm 19:53 Mostly Cloudy 69 20.6 65 18.3 87 87 SE 5 7 29.89 1012 10 16 0.00 0.00
8:53 pm 20:53 Mostly Cloudy 68 20 65 18.3 90 90 SSE 3 6 29.90 1012 10 16 0.00 0.00
9:53 pm 21:53 Mostly Cloudy 68 20 65 18.3 90 90 SSE 7 11 29.89 1012 10 16 0.00 0.00
10:53 pm 22:53 Mostly Cloudy 68 20 64 17.8 87 87 SE 5 7 29.89 1012 10 16 0.00 0.00
11:53 pm 23:53 Partly Cloudy 68 20 64 17.8 87 87 SE 5 7 29.89 1012 10 16 0.00 0.00

Powered by AerisWeather